This demonstration page uses our WeatherBlox Daily Observations layout. Learn more.

38.89511, -77.03637

Hourly Observations for June 7, 2020

Temp ( °F °C ) Dew Point ( °F °C ) Humidity (%) Winds ( mph kmh ) Pressure ( in mb ) Visibility ( mi km ) Precip ( " mm )
12:52 am 00:52 Mostly Cloudy 74 23.3 56 13.3 54 54 NNW 8 13 29.85 1011 10 16.0934 0 0
1:52 am 01:52 Mostly Cloudy 75 23.9 56 13.3 52 52 NNW 7 11 29.86 1011 10 16.0934 0 0
2:52 am 02:52 Cloudy with Light Rain 74 23.3 55 12.8 52 52 NNW 15 24 29.89 1012 10 16.0934 0.001 0.001
3:52 am 03:52 Mostly Cloudy 73 22.8 52 11.1 48 48 N 14 22 29.89 1012 10 16.0934 0.001 0.001
4:52 am 04:52 Mostly Clear 69 20.6 53 11.7 57 57 NNW 9 15 29.91 1013 10 16.0934 0 0
5:52 am 05:52 Mostly Sunny 68 20 54 12.2 61 61 NNW 7 11 29.93 1014 10 16.0934 0 0
6:52 am 06:52 Mostly Sunny 69 20.6 56 13.3 63 63 NNW 9 15 29.95 1014 10 16.0934 0 0
7:52 am 07:52 Mostly Sunny 72 22.2 56 13.3 57 57 NNW 8 13 29.96 1015 10 16.0934 0 0
8:52 am 08:52 Sunny 74 23.3 55 12.8 52 52 NW 8 13 29.98 1015 10 16.0934 0 0
9:52 am 09:52 Sunny 76 24.4 55 12.8 48 48 N 12 19 29.98 1015 10 16.0934 0 0
10:52 am 10:52 Mostly Sunny 77 25 55 12.8 47 47 N 13 20 29.97 1015 10 16.0934 0 0
11:52 am 11:52 Partly Cloudy 79 26.1 53 11.7 41 41 N 10 17 29.97 1015 10 16.0934 0 0
12:52 pm 12:52 Partly Cloudy 80 26.7 52 11.1 38 38 NNW 13 20 29.97 1015 10 16.0934 0 0
1:52 pm 13:52 Partly Cloudy 80 26.7 53 11.7 39 39 NW 12 19 29.98 1015 10 16.0934 0 0
2:52 pm 14:52 Partly Cloudy 81 27.2 54 12.2 39 39 NW 12 19 29.96 1015 10 16.0934 0 0
3:52 pm 15:52 Partly Cloudy 80 26.7 53 11.7 39 39 NNW 13 20 29.95 1014 10 16.0934 0 0
4:52 pm 16:52 Partly Cloudy 81 27.2 52 11.1 37 37 NW 10 17 29.93 1014 10 16.0934 0 0
5:52 pm 17:52 Partly Cloudy 81 27.2 51 10.6 35 35 NW 9 15 29.94 1014 10 16.0934 0 0
6:52 pm 18:52 Partly Cloudy 80 26.7 51 10.6 37 37 NNW 12 19 29.95 1014 10 16.0934 0 0
7:52 pm 19:52 Partly Cloudy 79 26.1 50 10 36 36 NNW 8 13 29.96 1014 10 16.0934 0 0
8:52 pm 20:52 Mostly Clear 75 23.9 53 11.7 46 46 N 7 11 29.96 1014 10 16.0934 0 0
9:52 pm 21:52 Mostly Clear 75 23.9 54 12.2 48 48 N 3 6 29.98 1015 10 16.0934 0 0
10:52 pm 22:52 Mostly Clear 73 22.8 55 12.8 53 53 Calm 30 1016 10 16.0934 0 0
11:52 pm 23:52 Mostly Clear 71 21.7 56 13.3 59 59 S 5 7 30 1016 10 16.0934 0 0

Powered by AerisWeather